TimeEDT,TemperatureF,Dew PointF,Humidity,Sea Level PressureIn,VisibilityMPH,Wind Direction,Wind SpeedMPH,Gust SpeedMPH,PrecipitationIn,Events,Conditions,WindDirDegrees,DateUTC
12:14 AM,64.4,57.6,78,30.03,10.0,South,9.2,-,N/A,,Overcast,170,2013-10-13 04:14:00
12:33 AM,64.6,57.7,78,30.03,10.0,South,8.1,-,N/A,,Overcast,190,2013-10-13 04:33:00
12:54 AM,63.3,57.6,81,30.04,10.0,SW,6.9,-,N/A,,Overcast,220,2013-10-13 04:54:00
1:14 AM,63.9,57.4,79,30.05,10.0,SSW,8.1,-,N/A,,Overcast,200,2013-10-13 05:14:00
1:33 AM,63.9,57.4,79,30.05,10.0,SSW,5.8,-,N/A,,Mostly Cloudy,200,2013-10-13 05:33:00
1:54 AM,63.5,57.2,80,30.05,10.0,South,5.8,-,N/A,,Scattered Clouds,190,2013-10-13 05:54:00
2:14 AM,63.1,56.8,80,30.06,10.0,SW,5.8,-,N/A,,Scattered Clouds,220,2013-10-13 06:14:00
2:33 AM,61.7,56.5,83,30.07,10.0,SW,6.9,-,N/A,,Scattered Clouds,230,2013-10-13 06:33:00
2:54 AM,60.8,56.5,86,30.07,10.0,SW,5.8,-,N/A,,Scattered Clouds,230,2013-10-13 06:54:00
3:13 AM,58.6,55.6,90,30.08,10.0,SW,5.8,-,N/A,,Scattered Clouds,230,2013-10-13 07:13:00
3:33 AM,59.0,56.1,90,30.09,10.0,SW,4.6,-,N/A,,Mostly Cloudy,230,2013-10-13 07:33:00
3:54 AM,57.6,55.8,94,30.10,10.0,West,5.8,-,N/A,,Scattered Clouds,280,2013-10-13 07:54:00
4:13 AM,59.0,52.7,80,30.11,10.0,WNW,8.1,-,N/A,,Clear,290,2013-10-13 08:13:00
4:33 AM,58.3,50.9,76,30.11,10.0,West,9.2,-,N/A,,Clear,280,2013-10-13 08:33:00
4:54 AM,57.6,49.5,74,30.13,10.0,West,5.8,-,N/A,,Clear,280,2013-10-13 08:54:00
5:13 AM,54.7,49.5,83,30.13,10.0,West,5.8,-,N/A,,Clear,260,2013-10-13 09:13:00
5:33 AM,53.8,49.6,86,30.15,10.0,West,6.9,-,N/A,,Clear,270,2013-10-13 09:33:00
5:54 AM,53.2,48.4,84,30.15,10.0,West,8.1,-,N/A,,Clear,270,2013-10-13 09:54:00
6:13 AM,51.4,47.3,86,30.16,10.0,West,6.9,-,N/A,,Clear,260,2013-10-13 10:13:00
6:34 AM,50.0,46.0,86,30.17,10.0,West,5.8,-,N/A,,Clear,260,2013-10-13 10:34:00
6:53 AM,48.7,45.5,89,30.18,10.0,West,6.9,-,N/A,,Clear,260,2013-10-13 10:53:00
7:13 AM,48.7,46.0,90,30.18,10.0,West,6.9,-,N/A,,Clear,270,2013-10-13 11:13:00
7:34 AM,47.7,44.8,90,30.19,10.0,West,6.9,-,N/A,,Clear,270,2013-10-13 11:34:00
7:53 AM,47.7,44.6,89,30.20,10.0,West,6.9,-,N/A,,Clear,270,2013-10-13 11:53:00
8:13 AM,46.8,44.1,90,30.20,10.0,WSW,4.6,-,N/A,,Clear,250,2013-10-13 12:13:00
8:34 AM,48.6,46.2,92,30.21,10.0,West,5.8,-,N/A,,Clear,260,2013-10-13 12:34:00
8:53 AM,51.8,46.8,83,30.21,10.0,West,6.9,-,N/A,,Clear,270,2013-10-13 12:53:00
9:13 AM,53.4,46.6,78,30.22,10.0,West,8.1,-,N/A,,Clear,280,2013-10-13 13:13:00
9:34 AM,54.5,45.7,72,30.22,10.0,West,10.4,-,N/A,,Clear,280,2013-10-13 13:34:00
9:53 AM,56.1,45.7,68,30.23,10.0,West,10.4,-,N/A,,Clear,280,2013-10-13 13:53:00
10:13 AM,57.0,45.9,66,30.23,10.0,WNW,8.1,-,N/A,,Clear,290,2013-10-13 14:13:00
10:34 AM,57.9,45.7,64,30.24,10.0,WNW,9.2,-,N/A,,Clear,290,2013-10-13 14:34:00
10:53 AM,59.4,45.9,61,30.25,10.0,WNW,10.4,-,N/A,,Clear,300,2013-10-13 14:53:00
11:13 AM,59.7,45.0,58,30.25,10.0,NW,10.4,16.1,N/A,,Clear,310,2013-10-13 15:13:00
11:34 AM,60.8,45.3,57,30.25,10.0,NW,8.1,-,N/A,,Clear,320,2013-10-13 15:34:00
11:53 AM,61.3,45.1,55,30.25,10.0,NW,10.4,-,N/A,,Clear,310,2013-10-13 15:53:00
12:13 PM,61.7,44.8,54,30.26,10.0,NW,10.4,-,N/A,,Clear,320,2013-10-13 16:13:00
12:34 PM,63.0,44.4,51,30.26,10.0,WNW,9.2,-,N/A,,Clear,290,2013-10-13 16:34:00
12:53 PM,62.2,44.8,53,30.26,10.0,West,11.5,-,N/A,,Scattered Clouds,280,2013-10-13 16:53:00
1:13 PM,65.1,45.3,49,30.26,10.0,NW,11.5,18.4,N/A,,Mostly Cloudy,310,2013-10-13 17:13:00
1:34 PM,61.9,44.6,53,30.27,10.0,WNW,13.8,-,N/A,,Overcast,290,2013-10-13 17:34:00
1:53 PM,63.3,43.9,49,30.26,10.0,West,11.5,-,N/A,,Scattered Clouds,280,2013-10-13 17:53:00
2:13 PM,61.3,43.7,52,30.26,10.0,WNW,11.5,-,N/A,,Scattered Clouds,300,2013-10-13 18:13:00
2:34 PM,60.8,44.1,54,30.27,10.0,WNW,15.0,-,N/A,,Mostly Cloudy,290,2013-10-13 18:34:00
2:53 PM,61.7,44.4,53,30.27,10.0,NW,11.5,16.1,N/A,,Overcast,320,2013-10-13 18:53:00
3:13 PM,61.2,43.5,52,30.27,10.0,NW,12.7,16.1,N/A,,Overcast,320,2013-10-13 19:13:00
3:34 PM,61.7,43.7,52,30.27,10.0,NW,6.9,-,N/A,,Overcast,310,2013-10-13 19:34:00
3:53 PM,61.3,43.9,53,30.27,10.0,NW,6.9,16.1,N/A,,Overcast,310,2013-10-13 19:53:00
4:14 PM,61.7,43.9,52,30.27,10.0,WNW,6.9,-,N/A,,Mostly Cloudy,300,2013-10-13 20:14:00
4:34 PM,61.0,43.5,53,30.27,10.0,WNW,5.8,-,N/A,,Mostly Cloudy,300,2013-10-13 20:34:00
4:53 PM,61.2,44.2,54,30.27,10.0,WNW,3.5,-,N/A,,Mostly Cloudy,290,2013-10-13 20:53:00
5:14 PM,62.6,43.9,50,30.28,10.0,WNW,10.4,-,N/A,,Mostly Cloudy,290,2013-10-13 21:14:00
5:34 PM,61.3,43.0,51,30.28,10.0,WNW,8.1,-,N/A,,Mostly Cloudy,290,2013-10-13 21:34:00
5:53 PM,60.1,42.6,53,30.28,10.0,West,8.1,-,N/A,,Scattered Clouds,270,2013-10-13 21:53:00
6:14 PM,59.2,43.3,56,30.28,10.0,West,6.9,-,N/A,,Mostly Cloudy,280,2013-10-13 22:14:00
6:34 PM,56.5,43.7,62,30.29,10.0,West,3.5,-,N/A,,Mostly Cloudy,280,2013-10-13 22:34:00
6:53 PM,55.2,44.6,67,30.30,10.0,NNW,4.6,-,N/A,,Mostly Cloudy,340,2013-10-13 22:53:00
7:14 PM,56.5,45.1,66,30.30,10.0,NNW,9.2,-,N/A,,Overcast,340,2013-10-13 23:14:00
7:34 PM,55.4,45.3,69,30.31,10.0,NNW,6.9,-,N/A,,Overcast,330,2013-10-13 23:34:00
7:53 PM,54.5,45.5,72,30.31,10.0,NNW,5.8,-,N/A,,Overcast,330,2013-10-13 23:53:00
8:13 PM,53.8,45.3,73,30.32,10.0,NW,8.1,-,N/A,,Overcast,320,2013-10-14 00:13:00
8:34 PM,52.5,45.0,75,30.32,10.0,NNW,4.6,-,N/A,,Overcast,330,2013-10-14 00:34:00
8:53 PM,51.4,44.6,77,30.32,10.0,NW,4.6,-,N/A,,Mostly Cloudy,310,2013-10-14 00:53:00
9:14 PM,49.5,44.1,82,30.33,10.0,WNW,5.8,-,N/A,,Scattered Clouds,290,2013-10-14 01:14:00
9:33 PM,49.1,44.1,83,30.33,10.0,WNW,6.9,-,N/A,,Clear,300,2013-10-14 01:33:00
9:53 PM,48.9,44.4,84,30.34,10.0,NW,6.9,-,N/A,,Mostly Cloudy,320,2013-10-14 01:53:00
10:14 PM,50.0,45.0,83,30.35,10.0,NW,5.8,-,N/A,,Overcast,320,2013-10-14 02:14:00
10:33 PM,51.1,45.3,81,30.35,10.0,WNW,4.6,-,N/A,,Overcast,300,2013-10-14 02:33:00
10:53 PM,51.8,45.5,79,30.36,10.0,NW,5.8,-,N/A,,Overcast,310,2013-10-14 02:53:00
11:14 PM,52.5,45.3,76,30.36,10.0,NW,5.8,-,N/A,,Overcast,310,2013-10-14 03:14:00
11:33 PM,52.2,45.5,78,30.36,10.0,NW,5.8,-,N/A,,Overcast,310,2013-10-14 03:33:00
11:53 PM,52.2,45.5,78,30.37,10.0,NW,5.8,-,N/A,,Overcast,320,2013-10-14 03:53:00